[[{"header":{"parameterUnit":"m.s-1","parameterCategory":1,"la1":30.2991,"la2":30.254,"lo1":-89.0895,"lo2":-89.0444,"dy":0.0017,"dx":0.0017,"nx":28,"ny":28,"refTime":"2023-09-12T09:00:00:Z","depth":0,"parameterNumber":2,"parameterNumberName":"U-component_of_WINDS"},"data":[0,0,0,0,0,0,0,0,0,0,0,0,0,0,0,0,0,0,0,0,0,0,0,0,0,0,0,0,0,0,0,0,0,0,0,0,0,0,0,0,0,0,0,0,0,0,0,0,0,0,0,0,0,0,0,0,0,0,2.5429,2.5429,0,2.5471,2.5472,2.5472,2.5437,2.5436,2.5434,2.5433,2.5477,2.5479,2.5482,0,0,0,0,0,0,0,0,0,0,0,0,0,2.5314,2.5317,2.5428,2.5429,2.543,2.5471,2.5472,2.5472,2.5438,2.5436,2.5434,2.5432,2.5476,2.5479,2.5482,0,0,0,0,0,0,0,0,0,0,0,0,0,2.5361,2.5317,2.5428,2.5417,2.5417,2.5471,2.5472,2.5473,2.5438,2.5436,2.5434,2.5431,2.5475,2.5479,2.5482,2.555,0,0,2.5494,2.5496,0,0,0,0,0,0,0,0,2.5359,2.5365,2.5418,2.5418,2.5418,2.5447,2.5448,2.5499,2.5439,2.543,2.5433,2.543,2.5468,2.5473,2.5486,2.5552,2.5554,2.5494,2.5497,2.5498,2.5499,0,0,0,0,0,0,0,2.5355,2.5363,2.5445,2.5419,2.5419,2.5409,2.5414,2.5457,2.5461,2.543,2.5428,2.5434,2.5468,2.5482,2.5486,2.5555,2.5494,2.5498,2.55,2.5501,2.5675,2.5677,0,0,0,0,0,0,2.5353,2.5361,2.5444,2.5447,2.5382,2.5413,2.5418,2.544,2.546,2.5462,2.5435,2.5432,2.5477,2.5482,2.5488,2.5565,2.5498,2.5502,2.5504,2.5672,2.5675,2.5678,0,0,0,0,0,0,2.5351,2.5361,2.5442,2.5403,2.5413,2.5417,2.5442,2.5442,2.5456,2.5464,2.5465,2.5449,2.5475,2.5482,2.5534,2.5566,2.5503,2.5507,2.567,2.5673,2.5677,2.5723,0,0,0,0,0,0,2.5348,2.5361,2.5387,2.5404,2.5415,2.5489,2.5444,2.5444,2.5462,2.5458,2.5477,2.5478,2.5474,2.5528,2.5538,2.557,2.551,2.5667,2.5671,2.5675,2.5718,2.5727,2.5735,0,0,0,0,0,2.5344,2.5399,2.5389,2.5399,2.5448,2.5491,2.5497,2.549,2.5465,2.5491,2.5496,2.5478,2.5562,2.5534,2.5544,2.5579,2.5665,2.567,2.5675,2.5714,2.5726,2.5735,0,0,0,0,0,0,2.5386,2.5401,2.539,2.5452,2.547,2.5485,2.5517,2.5503,2.5529,2.5524,2.5515,2.5519,2.5573,2.5581,2.555,2.5643,2.5609,2.5617,2.5635,2.5646,2.5654,2.565,2.5513,0,0,0,0,0,2.5403,2.5437,2.5448,2.5501,2.5511,2.5513,2.5531,2.5524,2.5543,2.555,2.5559,2.5578,2.5608,2.5628,2.5656,2.572,2.5722,2.5748,2.5757,2.5764,2.577,2.58,2.5811,2.5695,2.5695,2.5695,0,0,2.5438,2.545,2.5472,2.551,2.5523,2.5557,2.5519,2.5558,2.5582,2.5556,2.5604,2.5612,2.5631,2.5688,2.5714,2.5697,2.5802,2.577,2.5776,2.5778,2.5807,2.5818,2.5827,2.5699,2.5698,2.5697,0,0,2.5517,2.5531,2.5575,2.5589,2.5609,2.561,2.562,2.5637,2.564,2.5688,2.5669,2.5698,2.5751,2.5764,2.5778,2.5861,2.5843,2.587,2.5913,2.5943,2.5952,2.596,2.5986,2.5996,2.5877,2.5877,2.5877,0,2.5557,2.5607,2.56,2.5638,2.5655,2.5633,2.5676,2.569,2.5719,2.573,2.5711,2.5775,2.5787,2.5845,2.5865,2.5878,2.5888,2.5867,2.5952,2.596,2.5967,2.5992,2.6002,2.588,2.5879,2.5879,2.5879,0,2.5654,2.5689,2.5722,2.5749,2.5769,2.5811,2.5809,2.583,2.5822,2.5823,2.5871,2.5885,2.5914,2.5928,2.5921,2.5984,2.5973,2.5953,2.5918,2.5981,2.6004,2.6014,2.5884,2.5883,2.5882,2.5881,0,0,2.576,2.5781,2.5794,2.5804,2.5824,2.585,2.589,2.5918,2.5935,2.5956,2.5986,2.6031,2.6012,2.6028,2.6022,2.6049,2.6108,2.6025,2.6025,2.6037,2.6175,2.6187,2.6199,2.6098,2.61,2.6102,2.6172,0,2.5838,2.5905,2.5899,2.5963,2.5993,2.5972,2.6006,2.6021,2.6024,2.605,2.6053,2.6083,2.6058,2.6066,2.6092,2.6096,2.6135,2.6091,2.6125,2.6126,2.6117,2.6211,2.6225,2.6291,2.6182,2.6183,2.6184,0,2.5937,2.5959,2.6026,2.6038,2.605,2.6081,2.6104,2.613,2.6146,2.6146,2.6163,2.6152,2.6189,2.6155,2.6206,2.6175,2.6189,2.6193,2.6195,2.6196,2.6157,2.6211,2.6313,2.6321,2.6199,2.6198,2.6197,0,2.6003,2.6051,2.6095,2.6105,2.6122,2.6143,2.6151,2.6165,2.6181,2.6202,2.6212,2.6238,2.6251,2.6271,2.6266,2.6242,2.6316,2.6283,2.6315,2.6315,2.633,2.6328,2.6431,2.6344,2.6344,2.6344,2.6343,0,2.6089,2.6129,2.6125,2.6152,2.6196,2.6189,2.6232,2.6238,2.625,2.6277,2.6261,2.6287,2.628,2.6305,2.6302,2.6342,2.635,2.6349,2.6347,2.6349,2.6348,2.6355,2.6349,2.6346,2.6346,2.6345,2.6345,0,2.617,2.6169,2.6215,2.6227,2.623,2.6262,2.6271,2.6296,2.6297,2.6331,2.6339,2.6341,2.6369,2.6367,2.6399,2.6397,2.6446,2.644,2.644,2.6437,2.6469,2.6464,2.6578,2.6591,2.6498,2.6498,2.6499,0,2.6222,2.6253,2.6267,2.6283,2.6292,2.632,2.6336,2.6329,2.6346,2.6366,2.6388,2.6414,2.6435,2.6481,2.6485,2.6509,2.6501,2.6539,2.6505,2.6504,2.6498,2.6495,2.6496,2.6545,2.6546,2.6547,2.6548,0,2.6315,2.6313,2.6336,2.6359,2.6378,2.6396,2.6413,2.6427,2.6422,2.6442,2.647,2.6486,2.6518,2.6544,2.6566,2.6573,2.6559,2.6559,2.6567,2.6567,2.6565,2.6563,2.6455,2.6556,2.6555,2.6554,2.6554,2.6554,2.6381,2.6406,2.6419,2.6445,2.6456,2.6471,2.6494,2.6497,2.6521,2.6546,2.6541,2.6572,2.6585,2.6613,2.6622,2.6646,2.6632,2.6645,2.6647,2.665,2.6652,2.6563,2.665,2.665,2.665,2.665,2.665,0,2.647,2.6477,2.6501,2.6523,2.6543,2.6529,2.6545,2.6563,2.659,2.6603,2.6624,2.6655,2.6679,2.6684,2.6707,2.6725,2.6718,2.6731,2.6728,2.6729,2.6665,2.6653,2.6735,2.6735,2.6735,2.6735,2.6735,2.6735,2.6518,2.6558,2.6557,2.6601,2.6608,2.6638,2.6648,2.6661,2.6671,2.6706,2.6726,2.6729,2.6739,2.6762,2.6783,2.6784,2.6792,2.6806,2.6804,2.6743,2.6734,2.6726,2.6715,2.6808,2.6809,2.6866,2.6866,2.6867]},{"header":{"parameterUnit":"m.s-1","parameterCategory":1,"la1":30.2991,"la2":30.254,"lo1":-89.0895,"lo2":-89.0444,"dy":0.0017,"dx":0.0017,"nx":28,"ny":28,"refTime":"2023-09-12T09:00:00:Z","depth":0,"parameterNumber":3,"parameterNumberName":"V-component_of_WINDS"},"data":[0,0,0,0,0,0,0,0,0,0,0,0,0,0,0,0,0,0,0,0,0,0,0,0,0,0,0,0,0,0,0,0,0,0,0,0,0,0,0,0,0,0,0,0,0,0,0,0,0,0,0,0,0,0,0,0,0,0,2.8225,2.8226,0,2.8281,2.8282,2.8282,2.8264,2.8263,2.8262,2.8261,2.8314,2.8316,2.8319,0,0,0,0,0,0,0,0,0,0,0,0,0,2.8098,2.81,2.8225,2.8226,2.8227,2.8281,2.8282,2.8282,2.8265,2.8263,2.8262,2.826,2.8313,2.8316,2.8319,0,0,0,0,0,0,0,0,0,0,0,0,0,2.8153,2.8101,2.8225,2.8224,2.8225,2.8281,2.8282,2.8283,2.8265,2.8263,2.8261,2.826,2.8312,2.8315,2.8319,2.8378,0,0,2.8331,2.8332,0,0,0,0,0,0,0,0,2.815,2.8158,2.8224,2.8225,2.8225,2.8264,2.8256,2.8314,2.8265,2.825,2.8261,2.8259,2.8298,2.8303,2.8317,2.838,2.8382,2.8331,2.8333,2.8335,2.8336,0,0,0,0,0,0,0,2.8146,2.8155,2.8247,2.8225,2.8226,2.8219,2.8225,2.8267,2.8283,2.8251,2.825,2.8257,2.8298,2.8314,2.8318,2.8383,2.8331,2.8334,2.8336,2.8338,2.8494,2.8496,0,0,0,0,0,0,2.8143,2.8152,2.8245,2.8249,2.8183,2.8223,2.823,2.8253,2.8283,2.8285,2.8258,2.8256,2.8308,2.8314,2.832,2.8389,2.8335,2.8338,2.834,2.8493,2.8495,2.8497,0,0,0,0,0,0,2.814,2.8151,2.8243,2.82,2.8212,2.8227,2.8254,2.8255,2.8271,2.8288,2.829,2.8271,2.8307,2.8315,2.8363,2.8391,2.834,2.8343,2.849,2.8493,2.8496,2.8528,0,0,0,0,0,0,2.8137,2.815,2.8174,2.8201,2.8214,2.8287,2.8255,2.8258,2.8278,2.8275,2.8301,2.8304,2.8306,2.8358,2.8367,2.8395,2.8346,2.8488,2.8492,2.8495,2.8525,2.8532,2.8538,0,0,0,0,0,2.8132,2.8181,2.8176,2.8187,2.8244,2.8289,2.8296,2.8299,2.828,2.8303,2.8314,2.8303,2.8386,2.8363,2.8373,2.8402,2.8486,2.8491,2.8495,2.8522,2.853,2.8538,0,0,0,0,0,0,2.8155,2.8184,2.8179,2.8238,2.8261,2.8286,2.8315,2.8308,2.8336,2.8333,2.8334,2.834,2.8389,2.8401,2.8374,2.8459,2.8433,2.844,2.845,2.8458,2.8465,2.846,2.8349,0,0,0,0,0,2.8168,2.8203,2.8225,2.8275,2.8287,2.8299,2.8319,2.8319,2.8343,2.8352,2.8366,2.8388,2.8419,2.844,2.8469,2.8526,2.8531,2.8552,2.8558,2.8563,2.8569,2.8597,2.8606,2.8511,2.8511,2.8511,0,0,2.8192,2.8213,2.8235,2.828,2.8298,2.8333,2.8307,2.8346,2.8371,2.8357,2.8404,2.8415,2.844,2.8492,2.8516,2.8503,2.8596,2.8569,2.8573,2.8575,2.8603,2.8612,2.862,2.8514,2.8513,2.8513,0,0,2.8256,2.8275,2.8318,2.8337,2.8365,2.8372,2.8383,2.8408,2.8415,2.8463,2.8453,2.8482,2.8536,2.8553,2.8569,2.8637,2.8627,2.8647,2.8681,2.8709,2.8716,2.8723,2.8745,2.8754,2.8652,2.8652,2.8652,0,2.8283,2.8336,2.8341,2.8379,2.8399,2.8389,2.8431,2.8449,2.8484,2.8497,2.8483,2.8549,2.8565,2.8621,2.8637,2.8651,2.8661,2.8643,2.8715,2.8722,2.8728,2.8749,2.8758,2.8654,2.8654,2.8654,2.8654,0,2.8367,2.8404,2.8435,2.8471,2.8494,2.8534,2.8542,2.8565,2.8563,2.8571,2.8618,2.8637,2.8669,2.8683,2.8681,2.8738,2.8728,2.8715,2.8688,2.8739,2.8759,2.8768,2.8657,2.8657,2.8656,2.8655,0,0,2.8446,2.8484,2.8495,2.851,2.854,2.8568,2.8606,2.8639,2.8658,2.8682,2.8713,2.8759,2.8746,2.8764,2.8764,2.8789,2.884,2.8772,2.8772,2.8782,2.8901,2.891,2.8919,2.8834,2.8835,2.8837,2.8898,0,2.851,2.8581,2.8585,2.8647,2.868,2.8671,2.8705,2.8725,2.8734,2.8762,2.8771,2.8802,2.8784,2.8794,2.8819,2.8828,2.8863,2.8824,2.8861,2.8862,2.8853,2.893,2.894,2.8997,2.8906,2.8907,2.8908,0,2.8595,2.8623,2.8689,2.8713,2.8727,2.8757,2.8787,2.8814,2.8837,2.8841,2.8861,2.8857,2.8895,2.8868,2.8918,2.8891,2.8906,2.8913,2.8916,2.8918,2.8887,2.8933,2.9016,2.9024,2.8921,2.892,2.8919,0,2.8644,2.8698,2.8744,2.8758,2.8787,2.8808,2.8821,2.8842,2.8861,2.8887,2.8898,2.8928,2.8943,2.8965,2.8968,2.8949,2.9018,2.8992,2.9021,2.9021,2.9035,2.9034,2.912,2.9047,2.9047,2.9047,2.9047,0,2.8714,2.8754,2.8766,2.8794,2.8838,2.8842,2.8885,2.8896,2.8915,2.8944,2.8938,2.8964,2.8968,2.8995,2.8998,2.9038,2.9045,2.9048,2.9048,2.9048,2.9047,2.9057,2.9052,2.9049,2.9049,2.9048,2.9048,0,2.8776,2.8786,2.8835,2.8859,2.8866,2.8897,2.8916,2.8942,2.895,2.8986,2.8995,2.9007,2.9038,2.9044,2.9081,2.9082,2.913,2.9127,2.9123,2.9122,2.915,2.9146,2.9243,2.9255,2.9177,2.9178,2.9178,0,2.8819,2.885,2.8877,2.8897,2.8911,2.8942,2.8962,2.8966,2.8986,2.9014,2.9036,2.9067,2.9092,2.9142,2.9152,2.918,2.9176,2.9208,2.918,2.9178,2.9174,2.9172,2.9174,2.9213,2.9214,2.9215,2.9215,0,2.8895,2.8898,2.8927,2.8958,2.8981,2.9005,2.9028,2.9044,2.9051,2.9073,2.9106,2.9125,2.9163,2.9193,2.922,2.9232,2.9224,2.9224,2.9232,2.9232,2.9227,2.9228,2.9135,2.9222,2.9221,2.9221,2.922,2.922,2.8947,2.8974,2.8997,2.9029,2.9047,2.9068,2.9093,2.9104,2.9132,2.9164,2.9164,2.9199,2.9219,2.9255,2.9268,2.9294,2.9284,2.9296,2.9298,2.9301,2.9303,2.9225,2.93,2.9299,2.9299,2.9299,2.9299,0,2.9021,2.9035,2.9065,2.9097,2.9122,2.9115,2.9139,2.9159,2.9191,2.9211,2.9236,2.9272,2.9301,2.9314,2.9342,2.936,2.9357,2.9367,2.9365,2.9367,2.9311,2.9301,2.9369,2.9369,2.9369,2.9369,2.9369,2.9369,2.9062,2.9106,2.9112,2.9163,2.9177,2.9212,2.9226,2.9245,2.9261,2.9302,2.9326,2.9335,2.9352,2.9381,2.9406,2.9409,2.9419,2.943,2.9431,2.9378,2.9371,2.9364,2.9355,2.9432,2.9432,2.9484,2.9485,2.9485]}]]